Regional Weather Roundup
Issued by NWS Boston, MA

Current Version | Previous Version | Text Only | Print | Product List | Glossary On
Versions: 1 2 3 4 5 6 7 8 9 10 11 12 13 14 15 16 17 18 19 20 21 22 23 24 25 26 27 28 29 30 31 32 33 34 35 36 37 38 39 40 41 42 43 44 45 46 47 48 49 50
000
ASUS41 KBOX 140410
RWRBOX

REGIONAL WEATHER ROUNDUP
NATIONAL WEATHER SERVICE TAUNTON MA
1100 PM EST SAT FEB 13 2016

NOTE:  "FAIR" INDICATES FEW OR NO CLOUDS BELOW 12,000 FEET WITH NO
SIGNIFICANT WEATHER AND/OR OBSTRUCTIONS TO VISIBILITY.  THE FOLLOWING
OBSERVATION LOCATIONS DO NOT REPORT PRESENT WEATHER...PROVINCETOWN...
SMITHFIELD...BLOCK ISLAND...KEENE...AND OXFORD.

MAZALL-140500-
EASTERN MASSACHUSETTS

CITY           SKY/WX    TMP DP  RH WIND       PRES   REMARKS
BOSTON         PTCLDY    -1 -18  44 NW18G25   30.14S WCI -22
BEVERLY        PTCLDY    -4 -20  46 NW20G26   30.12S WCI -27
LAWRENCE       PTCLDY    -6 -22  46 NW17G26   30.16R WCI -28
BEDFORD        CLEAR     -4 -21  44 NW14      30.14R WCI -24
BLUE HILL        N/A     -5 -19  51 W20G30    30.04F WCI -28
NORWOOD        CLEAR     -1 -20  40 W12G22    30.15S WCI -18
MARSHFIELD     NOT AVBL
PLYMOUTH       CLEAR     -1 -19  42 W20G29    30.12R WCI -23
TAUNTON        CLEAR      0 -21  36 W14G21    30.14S WCI -19
NEW BEDFORD    CLEAR      0 -20  38 W16G29    30.15R WCI -20
$$

MAZALL-140500-
CAPE COD AND THE ISLANDS

CITY           SKY/WX    TMP DP  RH WIND       PRES   REMARKS
FALMOUTH       CLEAR      0 -18  42 NW20G29   30.13R WCI -22
HYANNIS        CLEAR      1 -20  36 W21G29    30.09R WCI -21
CHATHAM        CLOUDY     2 -11  54 W14G26    30.09R WCI -16
PROVINCETOWN   CLOUDY     4  -6  63 NW24G38   30.09R WCI -19
NANTUCKET      MOCLDY     5 -10  50 NW23G35   30.11R WCI -17
MARTHAS VNYRD  CLEAR      1 -16  44 NW20G38   30.14S WCI -20
$$

MAZALL-140500-
CENTRAL AND WESTERN MASSACHUSETTS

CITY           SKY/WX    TMP DP  RH WIND       PRES   REMARKS
WORCESTER      CLEAR     -8 -23  47 W21G32    30.03S WCI -33
FITCHBURG      CLEAR     -6 -19  53 NW15G23   30.14R WCI -27
ORANGE         PTCLDY    -8 -23  47 NW17G31   30.15R WCI -31
SPRINGFIELD    CLEAR     -6 -25  39 NW14G22   30.20R WCI -26
WESTFIELD      CLEAR     -6 -25  39 NW22G30   30.21S WCI -31
NORTH ADAMS    PTCLDY   -11 -27  45 W15       30.22R WCI -33
PITTSFIELD     CLEAR    -13 -29  44 NW13G25   30.12S WCI -34
$$

RIZALL-140500-
RHODE ISLAND

CITY           SKY/WX    TMP DP  RH WIND       PRES   REMARKS
PROVIDENCE     CLEAR     -1 -21  38 NW17G30   30.18S WCI -22
NEWPORT        CLEAR      0 -17  44 NW30G46   30.16S WCI -26
BLOCK ISLAND   MOCLDY     3 -11  51 NW20G33   30.17F WCI -18
SMITHFIELD     CLEAR     -2 -20  42 NW13G29   30.10R WCI -21
WESTERLY       CLEAR      0 -18  42 W10G20    30.21S WCI -16
$$

CTZALL-140500-
CONNECTICUT

CITY           SKY/WX    TMP DP  RH WIND       PRES   REMARKS
BRADLEY INTL   CLEAR     -3 -19  46 NW17G32   30.22F WCI -24
HARTFORD       PTCLDY    -1 -18  44 NW15G25   30.27R WCI -21
BRIDGEPORT     CLEAR      4 -16  39 NW15G26   30.28R WCI -14
DANBURY        CLOUDY     1 -18  40 NW12G20   30.23S WCI -16
GROTON         CLEAR      1 -14  49 NW15      30.23S WCI -18
NEW HAVEN      CLEAR      3 -15  43 NW10G18   30.26S WCI -12
CHESTER        FAIR       1 -18  39 NW8       30.20S WCI -12
MERIDEN        PTCLDY     1 -16  44 NW12      30.25R WCI -16
WILLIMANTIC    CLEAR     -1 -19  42 W20G32    30.21F WCI -23
OXFORD         CLOUDY     0 -24  32 N13G21    30.18S WCI -18
$$

MEZ002-015-021-024-NHZ003-005-008-011-012-014-VTZ005-008-140500-
NORTHERN NEW ENGLAND

CITY           SKY/WX    TMP DP  RH WIND       PRES   REMARKS
PORTLAND ME    CLEAR     -7 -22  48 NW12G21   30.08S WCI -26
BANGOR ME      LGT SNOW  -6 -10  83 NW10G21   29.98R VSB 3/4 WCI -24
CONCORD NH     CLEAR    -10 -27  42 NW20G32   30.15S WCI -35
MANCHESTER NH  PTCLDY    -7 -24  43 NW26G37   30.14R WCI -34
NASHUA NH      PTCLDY    -6 -20  49 NW22      30.16R WCI -31
PORTSMOUTH NH  CLEAR     -9 -24  49 NW16G31   30.12R WCI -32
JAFFREY NH     MOCLDY   -12 -23  57 VRB6      30.06S WCI -26
KEENE NH       PTCLDY    -8 -27  37 NW12G17   30.17R WCI -27
BURLINGTON VT  CLOUDY   -12 -25  52 NW17      30.32F WCI -36
MT. WASHINGTON MOCLDY   -36 -42  74 NW36G46     N/A  WCI -78
$$

NYZ052-076-140500-
EASTERN NEW YORK

CITY           SKY/WX    TMP DP  RH WIND       PRES   REMARKS
ALBANY         PTCLDY    -8 -26  41 NW22G28   30.32S WCI -33
NEW YORK CITY  PTCLDY     8  -9  45 NW26G37   30.30F WCI -14
$$

ANZALL-140500-
MARINE OBSERVATIONS

STATION/POSITION TIME  TEMP    WIND        PRES    VSBY  WAVE
                       AIR SEA DIR/SP/G                  HT/PER
                 (UTC) (F)     (DEG/KT/KT) (MB)    (MI)  (FT/S)
BOSTON BUOY      0350    4 40  300/ 27/ 35 1019.3R         6/ 5
BUZZARDS BAY     0300          300/ 37/ 41 1021.5R
NANTUCKET SOUND  0350    6 36  290/ 27/ 35 1019.7R         5/ 5
MASS BAY-STELLWA 0304    4 41  310/ 23/ 27   N/A     3/16  5/ 5
ISLE OF SHOALS   0400   -7     300/ 31/ 38 1018.1F
S OF BLOCK IS    NOT AVBL
$$

......................KEY.........................
  SKY/WX - SKY CONDITION/PRESENT WEATHER
  TMP    - TEMPERATURE IN FAHRENHEIT
  DWPT   - DEWPOINT IN FAHRENHEIT
  RH     - RELATIVE HUMIDITY IN PERCENT
  WIND   - DIRECTION AND SPEED IN MPH
  PRES   - MEAN SEA LEVEL PRESSURE IN INCHES OF HG
  WCI    - WIND CHILL INDEX
  VSB    - VISIBILITY IN MILES
  HX     - HEAT INDEX
  TC     - TEMPERATURE IN CELSIUS
  VRB    - VARIABLE WIND DIRECTION
  N/A    - NOT AVAILABLE



USA.gov is the U.S. government's official web portal to all federal, state and local government web resources and services.